TimeCDT,TemperatureF,Dew PointF,Humidity,Sea Level PressureIn,VisibilityMPH,Wind Direction,Wind SpeedMPH,Gust SpeedMPH,PrecipitationIn,Events,Conditions,WindDirDegrees,DateUTC
12:15 AM,66.2,53.6,64,29.96,0.5,East,3.5,-,N/A,,Haze,90,2013-10-02 05:15:00
12:35 AM,64.8,54.1,68,29.97,3.0,Calm,Calm,-,N/A,,Haze,0,2013-10-02 05:35:00
12:55 AM,63.0,53.4,71,29.97,10.0,Calm,Calm,-,N/A,,Clear,0,2013-10-02 05:55:00
1:15 AM,61.9,53.4,74,29.97,10.0,Calm,Calm,-,N/A,,Clear,0,2013-10-02 06:15:00
1:35 AM,61.5,54.1,77,29.97,1.0,Calm,Calm,-,N/A,,Haze,0,2013-10-02 06:35:00
1:55 AM,63.0,54.0,72,29.97,0.8,Calm,Calm,-,N/A,,Haze,0,2013-10-02 06:55:00
2:15 AM,61.5,54.7,78,29.97,0.5,SE,3.5,-,N/A,,Haze,130,2013-10-02 07:15:00
2:35 AM,60.3,55.6,85,29.97,1.0,SE,4.6,-,N/A,,Mist,130,2013-10-02 07:35:00
2:55 AM,59.9,55.8,86,29.97,4.0,SE,4.6,-,N/A,,Clear,130,2013-10-02 07:55:00
3:15 AM,61.0,56.3,85,29.97,3.0,SE,4.6,-,N/A,,Haze,140,2013-10-02 08:15:00
3:35 AM,61.7,56.5,83,29.96,10.0,SE,5.8,-,N/A,,Clear,140,2013-10-02 08:35:00
3:55 AM,61.7,57.2,85,29.96,10.0,SE,5.8,-,N/A,,Clear,140,2013-10-02 08:55:00
4:15 AM,61.7,57.7,87,29.96,10.0,SE,5.8,-,N/A,,Clear,130,2013-10-02 09:15:00
4:35 AM,62.1,59.0,90,29.96,10.0,SE,5.8,-,N/A,,Clear,140,2013-10-02 09:35:00
4:55 AM,61.9,59.4,91,29.96,10.0,SE,6.9,-,N/A,,Clear,140,2013-10-02 09:55:00
5:15 AM,61.7,59.5,93,29.96,10.0,SE,5.8,-,N/A,,Clear,140,2013-10-02 10:15:00
5:35 AM,61.3,59.4,93,29.96,7.0,SE,4.6,-,N/A,,Clear,130,2013-10-02 10:35:00
5:55 AM,61.2,59.2,93,29.96,7.0,SE,4.6,-,N/A,,Clear,130,2013-10-02 10:55:00
6:15 AM,61.2,59.5,94,29.97,7.0,ESE,4.6,-,N/A,,Clear,120,2013-10-02 11:15:00
6:35 AM,60.4,59.0,95,29.97,7.0,ESE,6.9,-,N/A,,Clear,110,2013-10-02 11:35:00
6:55 AM,60.8,59.2,94,29.96,7.0,ESE,5.8,-,N/A,,Clear,110,2013-10-02 11:55:00
7:15 AM,60.4,59.0,95,29.97,7.0,SE,4.6,-,N/A,,Clear,130,2013-10-02 12:15:00
7:35 AM,60.1,59.0,96,29.97,4.0,SE,5.8,-,N/A,,Clear,130,2013-10-02 12:35:00
7:55 AM,60.8,59.9,97,29.97,4.0,SE,5.8,-,N/A,,Clear,130,2013-10-02 12:55:00
8:15 AM,62.4,61.2,96,29.97,5.0,SE,4.6,-,N/A,,Clear,130,2013-10-02 13:15:00
8:35 AM,64.4,62.2,93,29.97,5.0,SE,5.8,-,N/A,,Scattered Clouds,130,2013-10-02 13:35:00
8:55 AM,66.2,62.8,89,29.97,7.0,SE,6.9,-,N/A,,Clear,130,2013-10-02 13:55:00
9:15 AM,67.6,63.5,87,29.97,7.0,SE,9.2,-,N/A,,Clear,140,2013-10-02 14:15:00
9:35 AM,69.1,63.9,83,29.97,5.0,SE,8.1,-,N/A,,Haze,140,2013-10-02 14:35:00
9:55 AM,69.3,63.9,83,29.97,4.0,SE,10.4,-,N/A,,Haze,140,2013-10-02 14:55:00
10:15 AM,70.5,64.4,81,29.97,5.0,SE,9.2,-,N/A,,Haze,130,2013-10-02 15:15:00
10:35 AM,72.5,64.6,76,29.97,4.0,SSE,11.5,-,N/A,,Haze,150,2013-10-02 15:35:00
10:55 AM,73.6,64.8,74,29.96,5.0,SE,9.2,-,N/A,,Haze,140,2013-10-02 15:55:00
11:15 AM,75.6,64.4,68,29.96,5.0,SE,10.4,-,N/A,,Haze,140,2013-10-02 16:15:00
11:35 AM,77.9,64.2,63,29.95,5.0,SSE,10.4,-,N/A,,Haze,150,2013-10-02 16:35:00
11:55 AM,79.9,63.9,58,29.94,4.0,SE,9.2,-,N/A,,Haze,140,2013-10-02 16:55:00
12:15 PM,80.8,63.9,56,29.94,5.0,SSE,8.1,-,N/A,,Haze,150,2013-10-02 17:15:00
12:35 PM,82.4,62.8,51,29.93,3.0,SSE,9.2,18.4,N/A,,Haze,160,2013-10-02 17:35:00
12:55 PM,83.5,61.7,48,29.93,3.0,SSE,12.7,18.4,N/A,,Haze,150,2013-10-02 17:55:00
1:15 PM,83.3,61.0,47,29.92,3.0,SSE,10.4,19.6,N/A,,Haze,160,2013-10-02 18:15:00
1:35 PM,84.0,61.2,46,29.91,2.5,SSE,12.7,17.3,N/A,,Haze,150,2013-10-02 18:35:00
1:55 PM,85.5,60.6,43,29.90,2.5,South,9.2,17.3,N/A,,Haze,180,2013-10-02 18:55:00
2:15 PM,84.0,60.1,44,29.89,2.5,SSE,11.5,-,N/A,,Haze,150,2013-10-02 19:15:00
2:35 PM,85.6,59.5,41,29.89,2.5,SSE,15.0,20.7,N/A,,Haze,160,2013-10-02 19:35:00
2:55 PM,85.6,59.9,42,29.87,10.0,SSE,13.8,21.9,N/A,,Mostly Cloudy,160,2013-10-02 19:55:00
3:15 PM,84.4,59.9,43,29.87,10.0,SSE,10.4,18.4,N/A,,Scattered Clouds,160,2013-10-02 20:15:00
3:35 PM,85.3,59.0,41,29.86,10.0,South,15.0,23.0,N/A,,Scattered Clouds,170,2013-10-02 20:35:00
3:55 PM,86.0,58.5,39,29.86,10.0,South,13.8,21.9,N/A,,Scattered Clouds,170,2013-10-02 20:55:00
4:15 PM,84.2,58.5,41,29.85,10.0,South,15.0,21.9,N/A,,Scattered Clouds,170,2013-10-02 21:15:00
4:35 PM,84.6,59.0,42,29.85,10.0,South,13.8,19.6,N/A,,Clear,180,2013-10-02 21:35:00
4:55 PM,85.1,58.5,40,29.85,10.0,SSE,16.1,23.0,N/A,,Scattered Clouds,160,2013-10-02 21:55:00
5:15 PM,84.0,58.5,42,29.85,10.0,SSE,10.4,19.6,N/A,,Scattered Clouds,160,2013-10-02 22:15:00
5:35 PM,83.3,59.0,44,29.84,10.0,SSE,16.1,-,N/A,,Clear,160,2013-10-02 22:35:00
5:55 PM,81.9,59.4,46,29.84,10.0,SSE,11.5,17.3,N/A,,Clear,160,2013-10-02 22:55:00
6:15 PM,81.1,59.7,48,29.84,10.0,SSE,9.2,-,N/A,,Clear,150,2013-10-02 23:15:00
6:35 PM,79.9,59.9,50,29.85,10.0,SSE,6.9,-,N/A,,Clear,150,2013-10-02 23:35:00
6:55 PM,78.1,60.6,55,29.84,10.0,SSE,5.8,-,N/A,,Clear,150,2013-10-02 23:55:00
7:15 PM,76.1,60.8,59,29.85,10.0,SSE,4.6,-,N/A,,Clear,160,2013-10-03 00:15:00
7:35 PM,75.2,61.0,61,29.85,10.0,SSE,5.8,-,N/A,,Clear,150,2013-10-03 00:35:00
7:55 PM,74.3,61.3,64,29.86,10.0,SSE,6.9,-,N/A,,Clear,160,2013-10-03 00:55:00
8:15 PM,74.3,61.7,65,29.85,10.0,SSE,8.1,-,N/A,,Clear,150,2013-10-03 01:15:00
8:35 PM,74.5,61.7,64,29.86,10.0,SSE,5.8,-,N/A,,Clear,150,2013-10-03 01:35:00
8:55 PM,73.4,61.5,66,29.86,10.0,SSE,6.9,-,N/A,,Clear,150,2013-10-03 01:55:00
9:15 PM,72.7,61.3,67,29.85,10.0,SSE,6.9,-,N/A,,Clear,150,2013-10-03 02:15:00
9:35 PM,72.0,61.3,69,29.85,10.0,SSE,8.1,-,N/A,,Clear,160,2013-10-03 02:35:00
9:55 PM,71.6,61.7,71,29.86,10.0,South,8.1,-,N/A,,Clear,170,2013-10-03 02:55:00
10:15 PM,71.1,61.7,72,29.86,10.0,SSE,5.8,-,N/A,,Clear,160,2013-10-03 03:15:00
10:35 PM,71.1,62.2,74,29.86,10.0,SSE,8.1,-,N/A,,Clear,160,2013-10-03 03:35:00
10:55 PM,70.7,63.1,77,29.85,10.0,SSE,8.1,-,N/A,,Clear,160,2013-10-03 03:55:00
11:15 PM,70.7,63.1,77,29.84,10.0,SSE,9.2,-,N/A,,Clear,160,2013-10-03 04:15:00
11:35 PM,70.0,63.1,79,29.85,10.0,South,8.1,-,N/A,,Clear,170,2013-10-03 04:35:00
11:55 PM,69.1,63.5,82,29.85,10.0,South,8.1,-,N/A,,Clear,170,2013-10-03 04:55:00